Miscellaneous Local Product
Issued by NWS North Platte, NE

Home | Current Version | Previous Version | Graphics & Text | Print | Product List | Glossary On
Versions: 1 2 3 4 5 6 7 8 9 10 11 12 13 14 15 16 17 18 19 20 21 22 23 24 25 26 27 28 29 30 31 32 33 34 35 36 37 38 39 40 41 42 43 44 45 46 47 48 49 50
789
AXUS43 KLBF 221610
MISLBF


WESTERN AND NORTH CENTRAL NEBRASKA HOURLY WEATHER ROUNDUP
NATIONAL WEATHER SERVICE NORTH PLATTE NE
1100 AM CDT FRI MAY 22 2015

***STATIONS NOT REPORTING VARIABLES SUCH AS SKY/WEATHER OR
PRESSURE ARE PROVIDED BY THE NEBRASKA DEPARTMENT OF
ROADS...RAWS...AND APRS NETWORKS...AND ARE NOT UNDER
NATIONAL WEATHER SERVICE QUALITY CONTROL***

...OBSERVATIONS IN AND NEAR THE EASTERN PANHANDLE OF NEBRASKA...

CITY           SKY/WX    TMP DP  RH WIND       PRES   REMARKS
PINE RIDGE     CLOUDY    57  41  55 S18G25    30.11S
CHADRON        CLOUDY    56  44  64 S15       30.09F
ALLIANCE       LGT RAIN  48  46  93 SE16      30.11S
SIDNEY         LGT RAIN  48  45  89 SE13      30.09F
WHITECLAY        N/A     56  40  56 S17         N/A
BIG SPRINGS      N/A     48  47  95 E8          N/A
$$

...OBSERVATIONS IN NORTH CENTRAL NEBRASKA...

CITY           SKY/WX    TMP DP  RH WIND       PRES   REMARKS
VALENTINE      PTSUNNY   61  38  42 SE18G24   30.16F
THEDFORD       CLOUDY    55  44  66 SE12      30.19S
AINSWORTH      CLOUDY    60  42  53 SE14      30.19R
O`NEILL        PTSUNNY   64  41  44 SE9       30.21S
ORD            CLOUDY    54  45  71 SE7       30.21R
BROKEN BOW     CLOUDY    53  45  74 S10       30.21R
BROWNLEE         N/A     58  42  54 S16         N/A
BREWSTER         N/A     57  46  66 S9          N/A
ROSE             N/A     61  45  55 E10         N/A
NEWPORT          N/A     63  41  44 SE12        N/A
COMSTOCK         N/A     57  48  72 S7          N/A
$$

...OBSERVATIONS IN SOUTHWEST NEBRASKA AND FAR NORTHEAST COLORADO...

CITY           SKY/WX    TMP DP  RH WIND       PRES   REMARKS
WRAY           LGT RAIN N/A N/A N/A E12G18    30.08F
IMPERIAL       LGT RAIN  49  46  90 E15       30.11F
OGALLALA       LGT RAIN  48  47  95 SE12      30.14F
NORTH PLATTE   HVY RAIN  48  45  89 SE13G18   30.18S
MCCOOK         LGT RAIN  48  46  93 SE16G24   30.16S FOG
LEXINGTON      RAIN      50  47  92 SE6       30.20S
PAXTON           N/A     48  46  93 SE13        N/A
GOTHENBURG       N/A     48  44  87 E5          N/A
CALLAWAY         N/A     49  46  90 S13         N/A
$$

...NORTH PLATTE AREA...

CITY           SKY/WX    TMP DP  RH WIND       PRES   REMARKS
AIRPORT        HVY RAIN  48  45  89 SE13G18   30.18S
$$

...SOME WEATHER OBSERVATIONS FROM AROUND THE REGION...

CITY           SKY/WX    TMP DP  RH WIND       PRES   REMARKS
DENVER         CLOUDY    49  46  90 SE7       29.99S
LARAMIE        CLOUDY    43  38  82 SE17      30.01F
CHEYENNE       LGT RAIN  43  41  93 SE10      30.04S FOG
SCOTTSBLUFF    LGT RAIN  49  32  52 SE18      30.08S
RAPID CITY     CLOUDY    57  46  66 S12       30.10S
PIERRE         SUNNY     67  43  41 SE13      30.15S
WINNER         FAIR      66  38  35 SE14G21   30.18S
SIOUX FALLS    PTSUNNY   71  40  32 NE5       30.21S
OMAHA          CLOUDY    66  46  48 CALM      30.24S
GRAND ISLAND   CLOUDY    54  44  69 SE6       30.23S
KANSAS CITY    CLOUDY    58  49  72 SW8       30.29R
WICHITA        LGT RAIN  54  51  90 SE8       30.21R
HAYS           CLOUDY    54  45  71 S15G23    30.18S
LIBERAL        CLOUDY    54  48  82 SE18      30.13F
GOODLAND       LGT RAIN  48  47  96 SE21G30   30.07F FOG
$$



USA.gov is the U.S. government's official web portal to all federal, state and local government web resources and services.